Weather History for Galesburg, IL

Change the Weather History Date:

Sunday, October 9, 2011

  Actual Average Record
Temperature  
Mean Temperature 68 °F -  
Max Temperature 82 °F 63 °F 87 °F (2010)
Min Temperature 55 °F 42 °F 30 °F (1976)
Cooling Degree Days 4    
Growing Degree Days 18 (Base 50)    
Moisture  
Dew Point 45 °F    
Average Humidity 47    
Maximum Humidity 82    
Minimum Humidity 17    
Precipitation  
Precipitation 0.00 in - - ()
Sea Level Pressure  
Sea Level Pressure 30.25 in    
Wind  
Wind Speed 5 mph (ESE)    
Max Wind Speed 13 mph    
Max Gust Speed 17 mph    
Visibility 10 miles    
Events      
Averages and records for this station are not official NWS values.
T = Trace of Precipitation, MM = Missing Value Source: NWS Daily Summary

Daily Weather History Graph

Daily Weather History Graph

Search for Another Location

Airport:

Trip Planner

Search our weather history database for the weather conditions in past years. The results will help you decide how hot, cold, wet, or windy it might be!

Date:

Astronomy

Oct. 09, 2011 Rise Set
Actual Time 7:06 AM CDT 6:31 PM CDT
Civil Twilight 6:38 AM CDT 6:58 PM CDT
Nautical Twilight 6:07 AM CDT 7:30 PM CDT
Astronomical Twilight 5:35 AM CDT 8:02 PM CDT
Moon 5:08 PM CDT (10/9) 4:50 AM CDT (10/9)
Length of Visible Light 12h 19m
Length of Day
11h 24m
Waxing Gibbous, 95% of the Moon is Illuminated
Oct 9
Waxing Gibbous
Oct 11
Full
Oct 19
Last Quarter
Oct 26
New
Nov 2
First Quarter

Hourly Weather History & Observations

Time (CDT) Temp. Dew Point Humidity Pressure Visibility Wind Dir Wind Speed Gust Speed Precip Events Conditions
12:15 AM 62.6 °F 46.4 °F 55% 30.26 in 10.0 mi SE 4.6 mph - N/A   Clear
12:35 AM 62.6 °F 46.4 °F 55% 30.26 in 10.0 mi SE 3.5 mph - N/A   Clear
12:55 AM 62.6 °F 46.4 °F 55% 30.26 in 10.0 mi ESE 3.5 mph - N/A   Clear
1:15 AM 60.8 °F 46.4 °F 59% 30.26 in 10.0 mi ESE 3.5 mph - N/A   Clear
1:35 AM 60.8 °F 48.2 °F 63% 30.26 in 10.0 mi ESE 3.5 mph - N/A   Clear
1:55 AM 60.8 °F 48.2 °F 63% 30.27 in 10.0 mi Calm Calm - N/A   Clear
2:15 AM 60.8 °F 50.0 °F 68% 30.27 in 10.0 mi Calm Calm - N/A   Clear
2:35 AM 60.8 °F 50.0 °F 68% 30.27 in 10.0 mi SE 4.6 mph - N/A   Clear
2:55 AM 62.6 °F 50.0 °F 63% 30.27 in 10.0 mi SE 3.5 mph - N/A   Clear
3:15 AM 60.8 °F 50.0 °F 68% 30.27 in 10.0 mi ESE 4.6 mph - N/A   Clear
3:35 AM 60.8 °F 50.0 °F 68% 30.27 in 10.0 mi SE 3.5 mph - N/A   Clear
3:55 AM 60.8 °F 50.0 °F 68% 30.27 in 10.0 mi ESE 4.6 mph - N/A   Clear
4:15 AM 59.0 °F 50.0 °F 72% 30.28 in 10.0 mi Calm Calm - N/A   Clear
4:35 AM 59.0 °F 50.0 °F 72% 30.28 in 10.0 mi ESE 3.5 mph - N/A   Clear
4:55 AM 59.0 °F 50.0 °F 72% 30.29 in 10.0 mi ESE 3.5 mph - N/A   Clear
5:15 AM 57.2 °F 48.2 °F 72% 30.29 in 10.0 mi ESE 3.5 mph - N/A   Clear
5:35 AM 57.2 °F 50.0 °F 77% 30.29 in 10.0 mi East 4.6 mph - N/A   Clear
5:55 AM 57.2 °F 50.0 °F 77% 30.30 in 10.0 mi ESE 4.6 mph - N/A   Clear
6:15 AM 57.2 °F 50.0 °F 77% 30.30 in 10.0 mi East 4.6 mph - N/A   Clear
6:35 AM 55.4 °F 50.0 °F 82% 30.30 in 10.0 mi East 4.6 mph - N/A   Clear
6:55 AM 55.4 °F 50.0 °F 82% 30.30 in 10.0 mi East 5.8 mph - N/A   Clear
7:15 AM 55.4 °F 50.0 °F 82% 30.30 in 10.0 mi East 4.6 mph - N/A   Clear
7:35 AM 55.4 °F 50.0 °F 82% 30.31 in 10.0 mi East 5.8 mph - N/A   Clear
7:55 AM 57.2 °F 50.0 °F 77% 30.31 in 10.0 mi East 3.5 mph - N/A   Clear
8:15 AM 59.0 °F 50.0 °F 72% 30.31 in 10.0 mi East 4.6 mph - N/A   Clear
8:35 AM 60.8 °F 51.8 °F 72% 30.32 in 10.0 mi East 5.8 mph - N/A   Clear
8:55 AM 62.6 °F 51.8 °F 68% 30.32 in 10.0 mi ESE 4.6 mph - N/A   Clear
9:15 AM 64.4 °F 51.8 °F 64% 30.32 in 10.0 mi East 5.8 mph - N/A   Clear
9:35 AM 68.0 °F 53.6 °F 60% 30.32 in 10.0 mi ESE 5.8 mph - N/A   Clear
9:55 AM 71.6 °F 51.8 °F 50% 30.32 in 10.0 mi East 5.8 mph - N/A   Clear
10:15 AM 73.4 °F 51.8 °F 47% 30.32 in 10.0 mi ESE 5.8 mph - N/A   Clear
10:35 AM 75.2 °F 51.8 °F 44% 30.32 in 10.0 mi SE 5.8 mph - N/A   Clear
10:55 AM 77.0 °F 51.8 °F 41% 30.32 in 10.0 mi SE 5.8 mph - N/A   Clear
11:15 AM 77.0 °F 51.8 °F 41% 30.31 in 10.0 mi East 5.8 mph - N/A   Clear
11:35 AM 78.8 °F 50.0 °F 36% 30.31 in 10.0 mi ESE 6.9 mph - N/A   Clear
11:55 AM 78.8 °F 50.0 °F 36% 30.31 in 10.0 mi ESE 8.1 mph - N/A   Clear
12:15 PM 80.6 °F 48.2 °F 32% 30.30 in 10.0 mi SSE 6.9 mph - N/A   Scattered Clouds
12:35 PM 80.6 °F 46.4 °F 30% 30.29 in 10.0 mi ESE 9.2 mph - N/A   Scattered Clouds
12:55 PM 80.6 °F 46.4 °F 30% 30.28 in 10.0 mi SE 4.6 mph 17.3 mph N/A   Clear
1:15 PM 80.6 °F 44.6 °F 28% 30.27 in 10.0 mi South 6.9 mph - N/A   Clear
1:35 PM 80.6 °F 46.4 °F 30% 30.26 in 10.0 mi East 8.1 mph - N/A   Clear
1:55 PM 80.6 °F 44.6 °F 28% 30.24 in 10.0 mi East 11.5 mph 17.3 mph N/A   Clear
2:15 PM 80.6 °F 41.0 °F 24% 30.23 in 10.0 mi East 9.2 mph - N/A   Clear
2:35 PM 80.6 °F 41.0 °F 24% 30.22 in 10.0 mi SE 9.2 mph - N/A   Clear
2:55 PM 82.4 °F 41.0 °F 23% 30.22 in 10.0 mi East 12.7 mph 16.1 mph N/A   Clear
3:15 PM 82.4 °F 39.2 °F 21% 30.22 in 10.0 mi ESE 9.2 mph 16.1 mph N/A   Clear
3:35 PM 80.6 °F 39.2 °F 23% 30.21 in 10.0 mi East 11.5 mph 16.1 mph N/A   Clear
3:55 PM 80.6 °F 35.6 °F 20% 30.20 in 10.0 mi ESE 8.1 mph 16.1 mph N/A   Clear
4:15 PM 80.6 °F 33.8 °F 18% 30.20 in 10.0 mi East 8.1 mph - N/A   Clear
4:35 PM 80.6 °F 32.0 °F 17% 30.20 in 10.0 mi ESE 6.9 mph 17.3 mph N/A   Clear
4:55 PM 80.6 °F 32.0 °F 17% 30.19 in 10.0 mi ESE 9.2 mph - N/A   Clear
5:15 PM 80.6 °F 32.0 °F 17% 30.19 in 10.0 mi East 8.1 mph - N/A   Clear
5:35 PM 78.8 °F 33.8 °F 20% 30.19 in 10.0 mi ESE 8.1 mph - N/A   Clear
5:55 PM 78.8 °F 33.8 °F 20% 30.19 in 10.0 mi ESE 6.9 mph - N/A   Clear
6:15 PM 77.0 °F 35.6 °F 22% 30.18 in 10.0 mi ESE 4.6 mph - N/A   Clear
6:55 PM 71.6 °F 35.6 °F 27% 30.18 in 10.0 mi East 3.5 mph - N/A   Clear
7:15 PM 69.8 °F 37.4 °F 31% 30.18 in 10.0 mi East 3.5 mph - N/A   Clear
7:35 PM 69.8 °F 39.2 °F 33% 30.19 in 10.0 mi East 3.5 mph - N/A   Clear
7:55 PM 69.8 °F 39.2 °F 33% 30.18 in 10.0 mi East 4.6 mph - N/A   Clear
8:35 PM 66.2 °F 41.0 °F 40% 30.19 in 10.0 mi Calm Calm - N/A   Clear
8:55 PM 66.2 °F 39.2 °F 37% 30.18 in 10.0 mi East 4.6 mph - N/A   Clear
9:15 PM 66.2 °F 37.4 °F 35% 30.19 in 10.0 mi Calm Calm - N/A   Clear
9:35 PM 64.4 °F 37.4 °F 37% 30.19 in 10.0 mi East 4.6 mph - N/A   Clear
9:55 PM 64.4 °F 39.2 °F 40% 30.19 in 10.0 mi East 3.5 mph - N/A   Clear
10:15 PM 60.8 °F 42.8 °F 52% 30.19 in 10.0 mi Calm Calm - N/A   Clear
10:35 PM 62.6 °F 39.2 °F 42% 30.19 in 10.0 mi East 4.6 mph - N/A   Clear
10:55 PM 62.6 °F 37.4 °F 39% 30.19 in 10.0 mi East 4.6 mph - N/A   Clear
11:15 PM 62.6 °F 37.4 °F 39% 30.19 in 10.0 mi East 4.6 mph - N/A   Clear
11:35 PM 62.6 °F 39.2 °F 42% 30.19 in 10.0 mi Calm Calm - N/A   Clear
11:55 PM 60.8 °F 39.2 °F 45% 30.18 in 10.0 mi East 3.5 mph - N/A   Clear